Find Starlink 32750

NORAD ID: 62572 Int'l Des: 2025-006 Owner: SPXS Country: US Constellation: starlink operational
LEOCIRCULAR

現在のビュー

3D地球を読み込み中...

About Starlink 32750

Starlink 32750 (NORAD 62572) is a starlink constellation satellite (v2 mini) launched Jan 10, 2025 by SPXS of US. It operates in LEO, CIRCULAR orbit with a mass of 730.00 kg.

Starlink 32750について

説明を読み込み中...

次回通過

Passes for default location (London). Set your location on the main map for personalized predictions.

高度履歴

Loading altitude history...

軌道要素

1 62572U 25006U 26168.05405492 .00016165 00000-0 59540-3 0 9992
2 62572 43.0038 91.0242 0001461 267.0121 93.0563 15.27593890 80060
Epoch: Jun 17, 2026 • Age: 30 hours

現在のステータス

高度 485.0 km
速度 7.63 km/s
衛星直下点 34.39°N, 113.95°E
打ち上げ日 Jan 10, 2025
運用期間 1.4 years
タイプ internet

技術仕様

分類 Payload
質量 730.00 kg
乾燥質量 700.00 kg
総質量 730.00 kg
長さ 0.30 m
直径 4.10 m
スパン 29.00 m
形状 Box + pan
製造者 SPXS
バスタイプ Starlink V2M
フェーズステータス In Orbit
所有者/国 SPXS/US

Most Searched